Location: *
(24.1434°N, 56.8729°E)
Time: 22:17:18
(UTC+00:00)

NOSS 3-4 (C) - Pass Details

Date: 09 April 2020
Orbit: 897 x 1316 km, 63.4° (Epoch: 21 May)

Event Time Altitude Azimuth Distance (km) Brightness Sun altitude
Rises 15:56:00 0° 343° (NNW) 3,955 7.2 -19.4°
Reaches altitude 10° 15:58:50 10° 352° (N) 3,056 6.4 -20.1°
Maximum altitude 16:05:41 39° 59° (ENE) 1,753 4.5 -21.5°
Enters shadow 16:07:39 34° 90° (E) 1,923 4.5 -22.0°
